Other Surface Observations
Issued by NWS Charleston, SC

Home | Current Version | Previous Version | Text Only | Print | Product List | Glossary On
Versions: 1 2 3 4 5 6 7 8 9 10 11 12 13 14 15 16 17 18 19 20 21 22 23 24 25 26 27 28 29 30 31 32 33 34 35 36 37 38 39 40 41 42 43 44 45 46 47 48 49 50
000
SXUS52 KCHS 292112
OSOCHS

MARINE OBSERVATIONS
NATIONAL WEATHER SERVICE CHARLESTON SC
500 PM EDT SAT AUG 29 2015

...DOWNTOWN CHARLESTON AND HARBOR...

CITY           SKY/WX    TMP DP  RH WIND       PRES   REMARKS
WATERFRONT PRK   N/A     81  73  76 NE7       30.09F

...LAKE MOULTRIE...

CITY           SKY/WX    TMP DP  RH WIND       PRES   REMARKS
PINOPOLIS        N/A     84  61  45 NE7       30.05F

...LAKE AND SUPPLEMENTAL COASTAL OBSERVATIONS...

STATION/POSITION TIME  TEMP    WIND        PRES    WAVE   SWELL
                       AIR SEA DIR/SP/G            HT/PER HT/PER/DIR
                 (UTC) (F)     (DEG/KT/KT) (MB)    (FT/S) (FT/S/D)
FORT PULASKI     NOT AVBL
SAPELO ISLAND    2000   83      50/ 12     1019.0F
UPR LAKE MARION  NOT AVBL
WINYAH BAY       1945   81      60/  7     1020.0
LAKE MURRAY      2000   84      80/  4/ 10 1020.0F
ACE BASIN NERRS  NOT AVBL


...C-MAN AND BUOY OBSERVATIONS...

STATION/POSITION TIME  TEMP    WIND        PRES    WAVE   SWELL
                       AIR SEA DIR/SP/G            HT/PER HT/PER/DIR
                 (UTC) (F)     (DEG/KT/KT) (MB)    (FT/S) (FT/S/D)
BUOY 41004       2050   80 85   40/ 14/ 16 1018.9F   4/11   2/11
BUOY 41008       2050   79 85   50/ 17/ 19 1018.5F   4/11   2/100/11
FOLLY BEACH CMAN 2100   81      70/ 11/ 13 1019.6F
CAPERS NS BUOY   2008   81      70/ 14/ 17 1020.1F
FRIPP NS BUOY    2000   79      20/ 12/ 14 1019.7F
5E ST. MARYS GA  2021      86                N/A     3/11   2/100/11


STATION/POSITION TIME  TEMP    WIND        PRES    WAVE   SWELL
                       AIR SEA DIR/SP/G            HT/PER HT/PER/DIR
                 (UTC) (F)     (DEG/KT/KT) (MB)    (FT/S) (FT/S/D)
FRYING PAN BUOY  2050   81 81   30/ 14/ 16 1019.6F   4/10   3/110/10
BUOY 41025       2050   78 82   20/ 19/ 23 1018.8F   5/11   3/100/11
CAPE LOOKOUT NC  2100   79      40/ 16/ 19 1019.2F
BUOY 41002       2050   83 84  300/  2/  4 1019.1F   5/11   5/140/11
BUOY 41010       2020   84 85  160/  4/  8 1018.1F
ST AUGUSTINE FL  2100   82 87   80/  9/ 10 1018.4S

$$



USA.gov is the U.S. government's official web portal to all federal, state and local government web resources and services.